Find Kosmos-1361

NORAD ID: 13164 Int'l Des: 1982-040 Owner: GUKOS Country: SU operational
LEOCIRCULAR

リアルタイム位置

3D地球を読み込み中...

Kosmos-1361について

説明を読み込み中...

次回通過

Passes for default location (London). Set your location on the main map for personalized predictions.

高度履歴

Loading altitude history...

軌道要素

1 13164U 82040E 26131.87629985 -.00000016 00000-0 14290-5 0 9995
2 13164 74.0120 73.5821 0014782 228.7015 187.9288 12.48210462 5596
Epoch: May 11, 2026 • Age: 6 hours

現在のステータス

高度 1493.6 km
速度 7.12 km/s
衛星直下点 73.31°N, 128.99°W
打ち上げ日 May 6, 1982
運用期間 44 years
タイプ other

技術仕様

分類 Payload
質量 60.00 kg
乾燥質量 60.00 kg
総質量 60.00 kg
長さ 0.80 m
直径 0.80 m
スパン 0.80 m
形状 Poly
製造者 NPOPM
バスタイプ Strela-1 11F625
フェーズステータス In Orbit
所有者/国 GUKOS/SU

Most Searched